Wind_Speed
4 4 5 5 4 4 4 3 3 4 4 4 3 2 2 1 1 2 1 3 5 4 3 2 3 3 3 4 4 4 2 2 2 2 2 1 1 1 1 1 1 1 1 0 1 1 2 1 0 0 1 2 3 2 1 1 2 2 1 1 2 1 2 4 7 3 4 6 4 4 4 2 1 2 3 3 2 1 3 4 5 5 6 7 7 9 8
5 5 5 5 5 4 3 3 3 2 2 0 1 0 1 1 2 2 0 4 5 1 1 2 3 3 3 3 4 3 2 1 2 2 2 1 1 1 2 1 1 2 1 0 1 0 1 1 0 0 0 1 2 2 2 2 1 1 1 1 1 1 1 3 6 4 0 1 1 2 1 2 3 3 4 4 4 3 3 2 1 3 6 7 7 9 9
6 6 6 5 4 3 3 3 2 2 1 0 1 0 1 0 1 3 3 2 5 3 2 4 5 5 5 4 3 3 2 1 1 1 1 1 1 0 2 2 2 3 1 1 1 0 1 0 1 1 0 1 2 3 4 4 1 1 1 1 1 2 3 3 4 6 6 5 4 4 3 4 3 3 7 6 6 7 3 3 3 4 6 7 9 12 14
7 6 5 4 3 3 3 3 2 2 2 1 1 1 2 2 1 1 3 2 2 3 5 6 6 6 5 4 3 3 2 2 1 2 1 2 1 1 2 3 2 2 2 2 3 3 2 0 1 1 2 2 2 3 5 5 2 2 2 1 1 2 3 4 4 4 5 8 9 9 9 8 8 5 5 7 6 7 4 3 5 7 8 9 12 14 19
6 5 4 3 4 5 4 3 4 4 4 4 3 2 2 2 1 1 0 2 5 6 5 5 5 5 5 3 3 4 4 3 3 1 1 2 3 1 2 2 3 3 3 3 3 3 3 2 0 1 1 2 3 3 4 4 3 3 3 1 1 3 4 2 3 7 9 12 14 14 11 10 12 11 6 6 8 8 6 7 9 9 8 10 12 14 19
5 4 4 5 6 6 5 5 5 4 5 5 4 3 3 2 1 1 1 1 2 2 2 3 5 5 2 1 3 5 6 4 3 2 1 2 3 2 1 4 5 3 3 2 2 3 4 4 2 1 1 2 3 4 3 4 4 3 2 1 0 3 4 1 1 8 12 14 16 15 12 11 11 12 11 8 8 11 11 12 13 9 8 13 17 20 22
5 5 6 7 7 6 6 5 5 5 5 5 5 4 3 1 2 2 3 2 2 2 4 5 5 5 3 1 3 5 7 5 2 2 2 2 3 3 2 4 6 5 4 3 2 3 2 2 2 2 2 2 3 3 2 4 5 4 3 2 0 3 2 2 1 8 13 14 13 11 10 11 11 12 13 13 11 12 13 14 14 13 16 19 22 25 23
6 6 7 7 7 7 6 6 6 7 6 6 6 6 5 3 2 3 4 5 5 5 6 5 3 2 1 2 3 4 7 6 3 2 3 2 3 4 3 2 5 4 4 5 4 2 1 2 2 3 3 2 3 3 1 3 5 5 3 1 1 2 1 3 0 7 10 8 6 6 8 10 12 13 13 13 13 12 13 13 13 13 16 19 21 22 19
7 7 7 7 7 7 6 7 6 6 6 5 6 6 5 5 4 4 5 4 3 3 3 1 1 2 2 2 3 3 6 7 6 3 3 2 2 4 3 3 5 2 3 7 5 3 2 1 1 3 3 1 1 2 0 3 5 4 2 2 2 2 1 1 1 6 7 2 4 6 9 8 10 13 13 13 12 10 10 10 10 11 14 16 16 14 12
6 6 6 6 6 5 5 5 4 4 4 4 4 5 5 5 5 6 4 2 2 2 1 1 2 1 1 1 3 3 3 7 7 3 3 3 2 4 3 3 3 2 3 6 3 1 0 1 0 2 3 1 0 0 0 1 3 4 4 2 1 1 3 2 1 5 5 1 3 10 10 6 5 5 8 12 13 11 11 11 12 14 13 12 11 11 11
5 4 4 4 3 3 3 3 3 3 3 3 4 4 3 4 5 6 3 0 2 3 1 2 2 0 1 3 3 2 3 6 5 1 1 3 3 5 5 3 2 2 2 3 2 1 3 3 2 2 2 1 1 1 1 2 2 3 5 2 1 1 3 3 1 3 6 6 10 10 6 4 2 2 4 8 10 12 13 13 13 13 13 12 13 15 16
3 3 2 2 2 2 2 2 3 3 3 3 4 3 3 4 5 5 3 2 1 2 2 2 2 0 2 4 3 2 4 6 4 1 3 3 4 5 6 3 2 1 2 2 1 1 1 1 2 2 3 2 2 1 3 5 4 3 4 3 3 3 2 2 0 2 6 7 8 7 4 1 2 3 3 4 6 9 13 17 18 17 17 18 19 18 18
2 2 2 2 2 2 2 2 2 3 3 3 3 3 4 6 5 3 3 2 1 3 2 1 1 2 3 4 4 4 5 6 5 3 3 4 4 5 5 3 2 2 3 2 2 2 2 2 2 2 2 3 2 3 6 6 5 4 5 4 3 2 2 2 2 3 4 5 4 4 7 5 2 4 3 2 3 6 10 15 16 16 17 17 16 16 16
2 2 2 2 2 2 2 3 2 2 3 3 4 4 5 6 6 3 3 2 1 4 4 1 2 6 6 6 7 7 6 5 5 3 3 4 5 5 5 4 4 4 4 3 3 2 2 1 2 2 3 3 3 3 5 5 3 3 4 5 4 3 2 2 2 3 2 5 5 6 11 10 2 3 4 5 4 3 4 9 11 10 12 13 12 13 14
3 3 4 4 4 4 4 4 4 4 4 4 4 5 6 6 6 5 4 3 1 4 7 3 2 8 9 7 7 6 5 4 3 3 3 4 4 4 6 6 5 5 5 4 2 2 1 2 3 3 2 3 2 0 3 4 2 2 1 3 4 3 2 2 2 2 1 4 6 5 7 7 0 3 5 7 4 3 2 5 10 7 9 13 12 11 12
4 4 5 5 5 5 5 5 5 5 5 4 4 6 6 7 8 7 7 5 1 2 7 7 5 10 10 7 6 5 3 3 4 3 2 3 3 4 6 7 5 5 5 3 1 2 1 2 3 3 2 1 1 1 1 3 2 3 2 2 3 3 3 2 3 4 3 4 6 4 5 6 1 5 8 9 7 5 4 4 5 3 8 12 11 10 11
3 3 3 4 4 4 4 4 4 4 5 5 5 6 7 7 8 8 8 7 4 2 6 10 10 12 9 5 5 5 3 4 4 2 1 3 5 5 7 7 5 6 5 2 1 2 3 3 2 3 3 1 0 3 1 1 3 2 3 2 3 3 3 4 5 6 4 4 5 4 6 6 1 8 10 9 10 8 2 6 4 4 9 11 10 9 10
5 5 5 5 4 3 3 3 3 3 4 4 5 5 6 7 8 9 9 9 5 2 5 10 13 12 8 4 6 7 7 6 4 1 1 3 4 6 9 8 5 5 4 2 1 2 3 3 2 4 3 1 1 2 1 1 2 1 3 4 4 3 3 4 5 5 5 6 5 5 7 5 3 11 14 13 10 5 4 6 3 3 6 8 8 9 10
8 8 7 7 6 5 4 3 2 2 2 3 4 5 6 6 7 8 9 9 7 4 7 12 14 12 9 7 7 9 9 7 5 3 1 1 4 7 8 7 5 4 4 2 2 2 3 2 1 2 2 1 1 2 2 1 2 1 2 2 2 2 3 3 3 4 4 4 4 6 7 3 9 14 14 12 5 2 4 4 4 3 5 5 7 9 10
8 8 8 7 7 6 5 4 3 2 2 2 3 4 5 5 6 8 9 9 6 5 8 13 13 12 10 8 6 8 8 7 7 5 1 0 8 10 4 3 5 6 4 3 3 1 2 3 1 1 3 2 1 1 3 3 4 2 1 2 2 2 2 3 4 4 3 3 4 5 7 3 17 17 9 8 8 6 8 8 9 10 10 10 10 10 10
8 8 8 7 7 7 6 5 5 4 3 2 3 4 5 5 6 7 8 8 5 4 7 12 13 11 9 7 6 8 8 7 7 6 1 2 13 11 1 1 6 7 3 3 2 1 1 2 0 1 2 1 1 2 2 3 4 1 0 1 2 3 3 4 2 3 2 3 5 2 3 9 24 18 6 10 16 17 17 15 13 12 11 10 10 11 12
8 8 8 8 8 8 7 7 6 6 5 3 3 4 4 4 5 7 7 8 7 4 7 11 11 10 8 7 6 7 7 6 7 7 3 5 14 12 2 3 5 6 4 3 2 1 1 2 0 1 2 1 2 3 2 3 3 0 2 2 4 6 5 2 3 4 4 6 9 9 6 6 19 22 20 21 22 23 22 22 21 18 15 14 14 14 14
9 9 9 9 9 8 8 8 8 7 6 4 3 4 4 2 1 4 4 4 4 7 10 11 10 8 6 6 5 5 5 5 5 7 6 5 10 12 9 3 3 5 5 6 4 2 0 2 1 2 2 2 2 3 3 4 4 1 2 5 6 6 5 1 2 4 6 13 22 26 25 24 26 29 32 31 29 26 26 27 26 22 20 20 20 19 18
9 9 9 9 9 9 9 9 8 7 6 5 6 7 7 5 5 4 1 1 5 10 10 8 6 5 4 5 4 4 4 4 4 5 6 5 5 6 8 8 7 5 4 7 7 3 1 1 1 1 3 1 1 3 5 5 4 2 3 5 5 6 7 5 5 4 4 9 12 14 19 25 25 24 26 28 30 30 28 28 27 26 24 24 24 23 22
9 9 9 9 9 8 8 8 8 7 6 7 9 8 7 5 3 2 1 1 4 7 6 4 4 4 5 5 3 3 2 3 3 3 4 6 6 5 6 7 8 8 7 7 7 4 3 2 1 2 4 2 3 4 4 3 2 1 2 5 4 4 6 5 8 9 8 11 13 17 25 31 29 27 28 29 30 31 29 27 26 26 26 25 25 25 24
8 8 9 8 8 8 7 8 8 8 8 9 10 8 6 6 5 4 4 3 3 3 4 3 4 6 5 4 3 3 2 2 3 2 3 4 6 7 7 7 7 8 9 8 6 6 4 3 2 3 3 2 3 3 2 3 4 2 5 7 3 4 5 5 6 7 10 15 20 24 28 28 27 27 27 26 25 25 25 24 24 24 25 25 26 25 24
8 8 9 9 8 8 8 7 7 7 7 9 9 8 6 5 5 5 4 3 1 1 3 3 5 7 6 3 2 3 2 1 2 2 3 4 4 6 6 6 5 6 6 6 6 6 5 3 3 4 4 3 3 3 3 4 4 3 7 8 7 6 6 6 4 5 8 10 11 12 10 12 16 18 18 19 20 20 21 23 23 24 25 24 24 25 25
8 9 9 9 9 8 7 7 6 5 6 7 8 9 8 6 5 4 3 3 3 1 4 8 9 6 4 3 2 2 1 2 2 2 3 4 4 5 5 5 5 6 6 6 4 4 5 4 2 3 3 2 3 3 2 1 2 4 8 10 15 15 12 9 8 7 10 14 17 15 12 14 19 22 22 23 23 22 23 25 26 25 25 24 24 25 26
8 9 9 9 9 9 8 7 6 5 5 5 7 8 9 8 8 7 5 5 4 3 8 13 10 3 2 3 3 2 2 2 3 3 4 4 4 4 4 5 6 6 7 6 4 4 5 5 3 3 4 3 2 2 2 2 4 6 9 13 20 24 24 22 20 17 20 27 31 26 21 22 27 29 30 30 31 30 29 29 29 27 26 25 25 25 25
9 9 10 9 9 9 8 8 7 7 6 5 5 5 5 7 9 8 7 6 6 5 6 8 5 2 2 4 4 3 3 3 4 4 5 5 5 5 5 6 6 6 7 6 5 4 5 4 4 5 6 6 3 2 2 3 4 8 13 19 23 27 29 30 29 26 27 33 35 32 31 35 38 40 41 40 39 37 34 32 31 29 27 27 27 26 26
9 9 9 9 8 8 7 7 9 8 8 7 5 3 2 4 6 7 6 6 5 3 3 6 6 4 3 2 3 4 4 5 6 6 7 7 7 7 6 6 6 6 6 6 6 5 5 4 4 3 4 8 6 2 3 4 2 8 21 27 26 24 25 28 30 30 32 36 37 36 39 43 43 42 43 42 39 36 34 32 31 29 28 28 27 27 27
8 8 8 7 7 7 6 8 10 10 9 8 7 6 5 4 5 6 5 5 4 2 2 5 5 3 1 2 3 4 5 6 6 7 8 8 7 7 6 6 7 7 7 6 5 5 4 4 3 1 3 7 5 2 3 3 4 15 33 39 34 29 29 30 31 33 36 38 34 28 33 41 42 38 37 36 35 33 33 31 29 29 30 29 28 29 29
7 7 7 7 7 7 8 9 10 10 8 7 7 7 7 6 6 6 5 3 3 3 1 2 3 1 1 2 3 4 4 5 5 6 7 7 7 6 5 5 6 6 7 6 4 3 3 3 2 2 3 6 4 3 3 7 17 33 44 44 38 37 36 35 36 37 38 39 34 27 30 40 41 37 37 38 38 37 36 33 31 32 32 31 32 33 32
6 6 6 6 6 7 8 8 8 7 5 5 5 6 6 6 6 7 6 2 1 2 3 3 2 1 1 1 2 2 3 5 5 5 5 5 5 4 3 3 3 3 5 6 4 3 3 2 2 2 2 3 3 3 4 12 26 37 39 35 36 37 35 34 37 36 34 34 34 33 36 40 38 38 41 42 41 41 39 35 34 35 34 35 36 35 33
6 6 5 5 5 6 6 6 5 5 4 4 4 5 5 5 5 6 7 5 1 1 2 3 2 1 1 1 1 2 5 6 5 5 5 5 5 4 3 3 3 2 4 4 3 2 2 1 1 2 2 3 3 4 7 14 24 31 31 32 37 37 32 31 36 39 37 36 37 39 41 40 38 40 43 42 42 42 40 38 38 37 37 39 40 38 36
6 6 5 5 4 5 5 5 4 4 3 4 5 5 5 5 5 5 6 7 5 2 1 2 2 1 2 2 1 4 7 7 6 6 5 4 4 3 1 1 2 2 2 2 2 2 2 2 2 2 1 3 5 11 16 21 26 31 34 34 35 36 34 36 40 43 44 43 43 44 44 44 44 45 45 43 43 42 40 40 40 40 40 42 42 40 39
6 6 6 5 4 4 5 5 4 4 4 4 5 5 4 4 3 3 4 5 5 5 4 3 2 1 1 1 1 5 7 5 4 4 3 2 3 2 1 1 2 2 2 2 2 2 2 3 3 3 3 7 15 23 26 28 29 31 34 34 33 35 38 40 42 43 44 45 46 46 46 45 45 44 44 44 44 42 41 42 43 42 42 42 41 40 39
7 6 6 5 4 4 4 5 5 4 4 5 4 3 3 4 2 1 3 3 2 4 5 4 2 2 1 2 2 5 5 4 3 3 1 1 3 1 2 1 1 1 2 2 2 2 2 2 3 3 6 15 24 25 22 20 21 26 31 34 37 39 41 41 42 41 40 41 45 48 46 43 43 44 45 46 46 46 47 47 46 44 43 43 42 40 39
7 6 5 5 5 5 4 5 6 4 4 5 3 2 3 4 2 1 3 3 2 3 4 3 2 2 2 2 2 4 4 3 3 2 0 1 2 1 0 0 1 1 3 2 1 1 2 2 3 3 5 10 13 11 18 22 26 31 35 37 39 41 41 41 42 42 40 41 44 48 47 45 46 49 50 49 49 51 52 51 49 47 46 45 42 40 39
8 6 5 5 6 6 5 5 6 4 3 3 2 1 2 3 3 2 4 3 0 1 3 2 0 2 2 2 2 3 4 4 3 2 1 2 1 1 1 1 1 1 3 3 1 1 2 2 2 2 4 6 5 10 24 31 33 35 38 39 41 42 41 41 42 42 42 43 44 45 45 45 46 49 51 50 50 52 54 54 53 51 49 46 44 42 41
9 7 6 5 5 6 5 5 5 4 2 2 2 2 2 3 3 3 2 1 1 1 2 2 1 1 2 3 3 3 5 5 3 3 2 1 1 1 1 1 1 1 3 2 1 1 2 3 2 3 7 8 9 19 30 36 38 39 41 43 44 44 44 44 44 43 43 44 45 44 44 44 44 45 47 48 49 51 53 53 53 52 51 50 49 46 42
10 9 7 5 4 5 5 4 4 3 1 1 1 1 1 2 3 2 1 2 2 2 2 2 2 2 4 5 4 4 4 4 2 1 1 1 1 2 1 1 1 1 2 1 3 1 2 3 3 5 7 11 20 30 36 39 40 41 43 44 46 46 46 47 48 47 47 47 48 47 47 46 46 45 45 45 46 48 49 50 50 50 51 52 51 48 43
12 11 9 5 4 4 4 3 3 3 1 1 1 1 1 1 1 0 1 2 3 2 2 2 3 4 5 6 5 4 4 4 2 1 1 2 2 2 1 0 1 1 1 2 2 1 2 2 4 5 10 20 30 37 40 42 42 43 44 46 47 48 49 48 48 49 49 48 48 48 49 49 48 47 45 44 44 46 47 46 46 47 49 50 50 49 46
12 11 8 5 3 3 3 2 2 1 1 0 0 0 2 2 0 1 1 2 2 2 2 4 4 4 5 5 5 4 3 2 1 0 1 2 2 0 1 1 1 1 2 2 2 3 3 4 7 10 16 26 34 38 42 45 46 46 47 48 49 49 49 50 50 50 50 49 49 49 50 50 50 50 48 46 45 45 46 46 44 44 45 46 48 49 48
11 9 7 4 2 2 1 1 1 1 0 1 1 1 1 2 1 1 2 3 3 3 5 6 6 5 5 6 5 2 0 1 1 0 1 2 1 1 1 1 1 1 2 2 2 3 3 4 6 12 22 31 37 42 45 47 47 47 47 48 50 50 50 51 51 51 50 50 50 50 50 51 51 51 50 48 47 46 47 47 45 43 43 44 46 47 47
10 7 4 2 1 1 1 0 1 1 0 1 1 1 2 3 4 4 6 7 7 7 8 8 6 5 4 4 3 2 1 1 1 1 0 1 2 1 1 2 2 1 1 2 3 4 4 3 9 20 31 38 43 46 47 48 49 48 47 47 49 52 53 53 52 51 50 50 51 51 51 51 50 50 50 50 48 47 47 47 45 43 42 43 45 45 45
8 6 3 2 1 2 0 0 1 2 2 3 5 6 7 8 10 10 10 10 10 10 10 8 6 4 4 3 2 2 1 1 0 1 1 1 2 1 2 1 2 2 2 3 4 3 4 10 21 31 38 42 45 47 47 48 48 48 47 49 51 54 55 54 52 52 51 51 51 52 51 50 50 50 50 50 49 47 46 46 46 44 44 45 45 43 43
6 5 3 1 1 0 1 1 4 7 7 6 8 9 9 11 12 12 12 11 10 10 8 6 4 3 2 2 1 1 1 1 1 1 1 0 2 2 1 1 2 2 2 3 3 4 8 19 32 40 43 45 47 47 47 48 49 49 51 53 54 55 55 53 52 52 52 51 51 52 52 51 51 51 51 51 51 49 47 47 47 46 46 47 46 44 43
5 4 3 2 2 1 2 5 7 7 7 8 9 10 11 12 12 12 12 11 10 9 7 5 4 3 2 1 1 1 1 1 0 0 0 1 2 1 0 2 3 3 2 2 3 9 19 31 40 43 44 46 48 48 48 49 50 51 53 54 54 54 53 53 53 54 53 52 51 51 52 52 52 52 52 52 52 52 50 49 48 47 47 47 47 45 44
3 3 3 3 2 3 5 6 5 4 6 10 12 13 13 13 12 12 11 10 8 7 5 4 3 1 0 1 1 1 1 1 1 0 1 2 2 1 1 3 3 3 4 8 14 23 32 38 42 43 45 46 48 49 49 51 53 54 54 54 54 54 53 53 54 54 54 54 53 52 53 53 53 52 52 52 52 53 53 51 49 47 47 46 46 46 45
3 2 2 2 3 5 6 6 4 4 6 10 13 13 13 12 12 11 10 8 6 3 2 1 1 1 1 1 1 1 1 1 1 1 2 2 1 1 2 3 3 7 14 22 28 34 38 41 43 44 46 48 49 51 52 53 53 53 53 54 55 55 55 55 55 55 55 55 55 54 55 55 54 54 53 53 53 54 55 54 51 48 47 47 46 46 46
2 2 3 5 6 6 6 5 5 7 9 12 14 15 14 13 12 11 9 6 4 3 2 2 1 1 0 1 0 0 0 1 1 2 2 2 3 4 4 7 13 20 26 31 35 38 40 42 45 46 46 48 51 54 55 54 54 54 54 54 55 56 56 56 56 55 55 56 57 56 57 57 56 55 54 54 54 54 55 55 53 50 49 49 48 47 46
Wind_Direction
233 260 272 271 257 248 254 271 290 296 299 290 270 267 283 275 270 290 256 163 150 127 91 71 55 66 84 84 91 97 92 121 152 181 203 211 248 166 126 54 43 56 17 74 187 232 251 239 290 191 131 65 70 125 131 270 255 261 274 106 113 224 264 277 281 268 113 98 94 91 75 72 144 171 190 191 178 257 288 298 319 306 280 290 293 274 274
250 265 266 252 240 247 267 278 283 276 272 10 58 177 172 104 65 22 194 175 178 186 77 132 113 105 118 105 99 99 69 96 165 190 204 200 238 202 123 97 87 84 54 256 171 224 252 220 132 89 194 123 129 152 159 166 247 301 321 13 20 252 252 290 305 312 57 100 121 133 105 276 246 166 148 156 154 171 230 241 262 269 260 280 296 276 269
257 262 250 234 237 262 269 253 233 219 205 67 17 279 216 175 53 42 35 209 217 225 113 128 133 137 137 122 132 138 90 71 188 155 160 216 287 272 106 101 104 106 111 192 151 170 276 256 81 73 110 136 149 182 182 174 224 310 283 341 329 287 290 293 324 339 334 323 318 317 319 297 281 143 148 165 166 169 205 270 257 261 272 277 276 271 279
257 249 230 230 257 255 231 212 218 236 245 276 342 324 260 254 249 50 39 47 137 124 112 121 128 144 152 133 153 178 132 123 154 122 152 187 134 71 98 121 135 136 173 215 198 188 197 272 330 237 193 138 135 197 187 178 213 229 188 183 239 267 273 256 266 289 292 293 294 301 311 298 287 269 190 175 169 177 205 263 258 279 299 281 261 266 287
244 227 224 246 240 216 207 231 260 261 262 267 280 309 296 257 245 282 20 75 85 91 96 105 116 144 171 153 146 162 143 135 158 179 270 175 153 96 94 154 192 177 176 222 222 190 180 175 196 257 219 111 119 174 186 192 214 190 166 174 234 266 265 245 249 255 259 274 281 287 294 281 277 283 257 186 163 171 191 222 246 278 300 278 270 283 293
225 220 237 234 213 214 238 266 270 260 268 271 264 296 320 272 220 222 199 131 67 84 103 105 108 118 131 117 140 157 155 158 176 183 168 181 195 202 169 199 218 203 185 227 220 191 203 204 181 175 214 144 151 169 185 202 194 155 158 200 287 288 278 118 192 267 268 271 272 273 274 268 267 274 270 244 196 180 195 223 240 252 257 261 280 294 293
223 227 228 218 218 242 264 271 268 262 272 273 253 267 301 277 168 161 163 114 57 93 126 127 120 105 96 129 170 178 176 171 155 131 146 185 211 221 239 214 202 195 197 228 235 215 225 233 203 164 165 184 195 196 190 191 191 184 184 184 294 281 272 92 341 285 283 275 265 259 257 261 265 264 266 266 243 212 213 234 242 244 248 258 276 287 286
224 220 221 226 244 266 271 270 272 269 269 266 254 257 262 243 204 160 141 104 79 94 118 134 138 121 138 190 176 189 195 180 150 157 189 183 168 197 238 193 158 167 196 214 241 273 307 302 251 176 168 192 217 226 217 144 171 199 195 152 216 262 2 71 3 288 291 275 241 238 250 259 269 271 267 264 258 243 235 242 247 248 252 260 274 283 282
217 221 235 252 266 273 272 271 272 267 262 258 260 263 255 249 240 191 146 109 92 106 115 136 218 177 200 203 155 189 210 179 151 156 213 226 159 182 204 151 134 138 213 224 252 330 16 8 96 167 195 227 179 208 263 122 158 186 183 172 206 226 280 16 291 298 298 210 188 267 282 273 269 271 263 248 242 240 232 231 234 238 253 270 278 278 278
226 240 254 262 269 269 266 267 263 259 257 253 268 274 259 251 234 195 168 118 138 155 144 216 239 188 154 122 141 174 181 157 154 170 208 214 203 190 179 147 159 191 218 222 242 8 67 243 230 199 218 245 89 100 2 146 175 173 163 184 250 260 288 305 326 302 296 241 294 305 307 294 267 251 238 227 224 232 238 239 240 241 252 272 276 268 279
233 243 249 249 256 254 253 260 256 254 259 262 278 283 257 245 220 187 186 242 152 172 219 212 208 205 87 116 138 153 144 152 169 227 173 171 192 189 167 156 223 245 191 195 222 265 261 265 263 226 195 168 184 195 198 209 211 170 167 178 140 159 274 299 332 283 290 312 314 302 290 292 321 102 170 206 222 239 248 254 258 256 256 260 264 272 284
212 222 226 226 238 237 241 258 260 262 267 269 275 273 226 210 197 186 230 296 160 184 240 228 199 127 133 146 135 123 148 162 169 116 95 128 167 173 157 155 264 255 152 168 231 255 245 62 96 121 106 121 154 179 214 214 203 184 185 180 151 164 229 259 208 258 282 308 316 302 293 321 110 137 178 206 233 249 257 265 265 259 259 260 263 271 278
186 204 212 213 225 237 247 255 262 266 267 265 263 247 201 188 190 205 261 287 176 174 195 210 187 169 158 150 124 107 133 153 153 128 101 109 145 161 162 173 192 164 158 143 94 138 173 134 142 155 136 150 178 201 213 210 194 190 195 190 184 191 231 265 261 243 270 307 321 299 305 311 158 168 195 191 231 250 265 275 262 245 250 256 257 263 272
199 221 239 253 255 261 264 262 270 270 262 260 247 226 206 201 209 230 265 284 236 174 181 186 168 172 164 143 130 119 120 135 135 118 108 115 131 155 178 181 171 164 155 127 122 183 235 249 241 226 176 183 214 209 193 190 184 187 193 195 200 211 229 275 269 229 259 305 286 267 288 292 231 168 194 186 196 221 256 285 277 253 245 244 248 263 272
256 261 264 272 272 273 276 271 274 272 260 263 253 230 222 222 225 239 257 276 320 180 195 217 166 161 155 146 145 134 122 147 150 116 121 127 123 157 181 175 168 165 150 134 164 227 270 280 271 266 221 215 266 254 169 170 153 128 165 184 184 208 245 296 294 249 220 298 295 288 290 288 224 137 167 155 126 99 136 275 284 266 224 219 232 256 270
275 280 281 288 285 283 285 276 274 274 261 261 258 237 234 239 240 248 252 249 275 199 207 215 185 157 146 145 166 166 147 165 161 139 152 152 138 164 174 168 165 156 142 143 212 235 234 249 264 274 272 264 335 297 211 178 162 121 109 143 167 207 256 270 270 265 246 273 292 293 280 289 35 127 146 135 120 125 152 264 283 197 183 203 223 249 270
328 330 325 324 317 308 306 289 278 276 263 259 260 246 245 250 246 247 248 241 251 269 227 209 181 158 145 138 171 183 176 166 167 201 213 146 137 154 164 162 159 152 149 171 227 222 231 240 252 267 266 138 176 287 290 225 230 173 132 152 173 193 229 214 226 252 243 238 264 265 265 280 114 133 143 133 129 141 187 302 307 168 190 208 218 251 279
40 36 34 28 20 12 359 340 313 295 272 262 261 255 253 254 248 243 243 239 237 248 220 198 178 171 175 172 171 179 178 166 165 204 119 122 149 174 170 162 158 159 169 203 235 231 239 236 239 267 277 110 118 296 308 205 269 238 153 169 176 183 211 211 231 259 241 226 252 269 269 275 123 129 137 136 139 168 268 312 345 158 198 212 223 262 287
55 51 49 47 43 39 32 22 3 335 304 274 266 263 258 255 250 241 235 234 234 221 203 194 184 183 187 177 168 177 180 178 181 180 157 146 165 165 163 167 176 176 177 198 235 241 245 239 212 259 270 197 169 283 282 232 257 243 156 194 203 183 189 201 230 251 236 229 251 269 275 246 130 129 138 148 161 273 294 320 340 308 282 276 264 275 286
51 47 45 45 43 42 42 38 32 15 344 310 288 278 266 254 246 235 226 229 232 206 194 195 189 184 184 179 172 177 180 187 191 192 296 164 150 146 146 197 182 165 169 204 224 225 241 245 166 167 253 249 141 265 280 253 237 224 200 245 229 171 189 227 220 205 226 251 241 273 300 173 145 137 134 171 205 271 303 313 314 303 296 293 281 277 278
48 44 41 39 37 37 37 35 33 26 5 338 313 295 280 263 246 229 220 228 236 196 184 192 190 184 186 187 184 184 188 197 198 195 276 149 162 164 8 355 169 170 178 204 213 208 230 254 64 195 255 299 134 225 282 282 261 241 105 268 238 177 206 260 252 177 205 254 219 236 357 155 165 171 204 223 231 260 282 289 295 295 289 283 276 274 274
44 41 39 36 34 32 31 29 26 21 16 4 343 323 307 276 246 229 223 232 237 200 171 178 179 178 183 185 184 188 194 208 213 208 201 165 177 194 258 55 151 194 204 194 233 310 201 186 201 255 247 230 215 230 268 279 272 346 120 220 224 196 195 274 306 219 224 266 259 266 300 204 198 220 249 254 255 265 272 276 282 284 279 276 277 277 276
39 37 34 33 33 30 28 27 21 19 24 26 32 33 26 27 179 199 213 225 194 137 134 150 159 159 167 171 170 181 192 202 212 214 213 185 187 211 234 235 216 230 216 211 249 325 100 192 281 306 273 249 236 242 236 235 247 257 212 225 229 207 181 128 299 251 266 272 261 259 267 267 255 253 260 264 267 269 271 276 279 277 275 276 278 279 279
35 34 32 32 33 31 31 32 26 27 38 49 59 62 56 61 96 120 138 179 131 118 118 132 141 139 154 165 167 178 188 194 204 214 219 210 195 216 237 241 241 239 224 231 242 254 250 247 39 327 269 219 182 257 258 243 237 236 232 241 236 202 180 197 239 249 283 274 251 243 257 264 264 263 264 268 270 271 274 277 276 275 276 276 277 280 281
35 36 35 35 36 36 40 41 37 40 51 58 62 63 57 56 74 70 20 128 143 128 116 120 140 159 171 170 171 177 174 190 208 214 222 225 224 233 248 250 243 235 239 249 240 218 234 251 195 244 254 203 188 244 260 255 253 211 241 263 255 170 164 215 243 231 233 258 271 275 275 274 275 273 270 270 273 275 277 278 277 276 276 274 276 279 280
37 40 39 39 42 45 47 48 45 45 51 56 59 57 52 53 58 61 73 100 131 121 105 117 165 179 173 158 168 186 181 197 216 220 240 246 246 250 256 259 252 239 241 250 236 214 228 251 237 244 244 200 211 244 273 294 300 290 256 253 225 134 167 219 245 249 253 264 271 274 275 276 276 273 271 272 276 276 276 278 277 275 274 274 276 278 279
41 43 43 43 44 46 46 44 41 40 45 51 54 52 51 57 58 61 75 80 52 69 91 115 161 174 170 162 174 191 205 237 242 253 268 265 264 265 258 251 250 241 232 234 228 215 218 233 237 236 233 237 250 249 271 298 301 283 264 239 180 170 224 227 225 263 264 255 255 261 271 282 285 286 285 284 284 280 276 276 277 278 278 277 276 277 279
45 45 46 48 49 49 47 42 38 43 46 50 55 55 51 48 42 32 25 3 327 310 123 128 139 153 165 174 188 207 242 266 277 289 290 283 277 276 265 250 249 237 216 215 224 218 216 222 225 219 219 245 257 227 209 282 268 259 257 219 193 204 224 208 197 237 258 263 272 277 277 280 288 296 296 292 291 288 282 280 282 282 282 279 276 275 277
50 49 47 49 49 48 44 40 43 52 51 52 64 66 56 48 45 41 34 31 27 65 121 128 133 145 171 181 204 242 268 283 291 288 289 291 287 283 270 255 252 237 220 224 239 244 241 240 240 232 209 196 244 255 222 228 247 252 247 225 221 233 240 232 229 243 261 272 280 284 284 284 287 291 293 292 291 290 286 283 284 283 281 279 276 275 275
49 48 46 45 46 44 42 45 55 61 59 57 65 67 52 42 43 43 46 57 60 69 107 122 133 171 180 188 224 249 257 274 288 291 291 292 295 296 285 267 259 247 236 236 242 256 269 261 246 244 221 200 212 299 283 245 259 268 264 256 250 251 253 251 249 252 263 275 282 284 284 287 288 288 289 290 289 288 286 284 283 281 278 277 276 276 276
47 47 46 46 47 45 48 61 67 66 63 59 57 53 45 42 43 43 46 55 56 52 82 98 111 136 158 204 238 243 266 289 288 286 290 294 297 296 284 268 260 248 240 244 249 257 270 257 240 245 219 207 213 267 272 254 269 276 274 274 269 263 264 268 270 270 273 280 285 285 284 286 287 286 287 291 292 290 288 285 283 280 277 275 276 276 274
48 50 50 52 58 60 67 73 71 65 63 65 66 70 74 67 50 39 37 46 46 35 81 96 103 136 210 264 248 251 286 304 300 296 299 300 298 294 283 272 264 249 240 245 249 250 253 249 245 247 211 209 211 254 273 248 227 257 271 280 286 284 283 284 286 287 286 285 284 280 281 286 288 286 288 293 294 291 288 286 282 278 275 274 273 272 271
49 50 50 55 60 62 66 68 67 63 60 63 69 72 69 62 47 31 25 40 47 34 60 102 102 126 213 259 265 277 304 316 315 313 308 297 292 293 288 278 271 255 241 234 234 249 258 240 232 241 220 212 221 269 275 239 240 255 269 282 290 292 292 291 289 289 290 290 285 276 277 287 291 289 287 288 288 286 286 284 280 276 274 272 270 269 270
45 44 47 50 51 53 57 62 64 63 54 48 57 59 51 44 34 21 17 29 54 30 45 72 97 134 193 251 254 280 321 328 320 312 304 294 290 291 281 270 269 250 233 225 226 257 266 240 234 245 195 173 208 266 271 254 256 264 276 289 297 300 300 299 296 296 297 298 295 289 289 292 293 289 287 287 285 284 282 279 275 273 272 270 270 270 269
41 39 40 42 44 47 49 48 51 52 38 26 30 30 24 24 22 21 27 34 16 307 13 42 63 101 293 282 220 291 324 325 313 301 297 290 286 287 277 261 254 231 221 225 231 250 247 225 235 229 170 153 199 229 239 257 271 282 292 300 307 308 302 296 298 301 302 301 298 296 296 295 291 290 290 289 285 283 280 277 275 273 269 269 271 270 268
35 33 31 31 37 40 38 34 33 31 18 11 13 12 11 17 23 28 35 35 29 25 53 64 69 40 328 305 284 320 325 325 315 302 293 287 291 296 277 242 253 243 231 241 250 243 219 196 219 236 162 149 214 236 245 259 277 291 299 307 317 319 312 305 303 301 299 298 297 295 294 292 290 290 291 290 287 284 278 274 273 270 267 270 273 271 269
28 27 26 26 26 27 26 21 14 10 4 359 2 6 10 15 21 28 29 27 34 52 67 84 107 98 316 258 296 320 322 326 327 314 291 274 296 291 223 228 285 293 259 241 222 210 206 208 231 243 215 225 248 262 272 278 285 295 303 312 323 328 327 326 321 311 302 299 297 297 297 294 291 291 292 291 290 285 279 277 278 275 273 276 277 274 273
24 22 22 23 22 17 11 3 357 354 349 347 348 354 1 0 357 1 5 3 19 42 48 66 122 164 200 230 297 321 324 320 314 309 277 287 311 295 200 213 313 319 283 256 199 196 215 213 223 251 254 254 263 280 299 310 318 328 333 333 333 334 333 333 332 325 312 301 299 302 302 297 293 293 293 292 291 288 285 285 285 281 278 280 280 277 274
16 11 14 21 19 10 359 355 352 341 336 347 350 326 339 352 349 318 342 351 5 23 27 49 123 178 202 231 289 317 328 320 293 274 271 311 318 336 74 301 354 327 284 265 168 169 244 227 213 255 274 259 266 316 357 359 351 349 347 342 338 336 333 329 330 329 322 313 311 312 309 302 299 299 297 295 293 291 289 288 286 283 281 282 281 277 273
11 6 359 0 3 2 357 353 351 338 324 344 356 327 338 7 27 352 333 333 354 23 10 10 271 223 228 245 283 304 316 315 284 265 294 292 270 289 326 337 19 327 273 260 124 101 279 258 219 251 273 248 255 353 2 355 346 342 340 336 336 338 336 332 331 330 326 323 322 320 316 311 308 306 303 300 296 293 291 289 288 286 284 283 280 278 276
6 0 348 338 344 351 348 346 348 342 310 315 347 358 356 359 356 346 334 285 224 331 331 314 287 250 253 269 271 276 298 305 283 256 274 291 270 284 285 299 4 301 255 254 53 61 268 274 261 242 255 270 312 345 349 345 339 337 336 336 338 339 338 336 335 334 332 329 326 324 322 320 317 313 311 308 304 299 295 292 290 287 285 283 282 281 279
358 352 344 330 325 335 335 329 336 341 319 295 352 9 343 317 321 321 278 231 258 295 291 267 267 283 293 295 287 277 289 306 305 254 264 298 321 319 307 333 342 283 244 305 21 26 248 266 258 240 263 312 339 344 342 338 336 334 333 334 336 338 338 337 336 335 334 331 328 327 327 325 323 322 320 316 312 307 303 299 295 291 288 286 284 282 278
349 344 338 322 312 329 331 310 317 345 13 54 28 353 317 316 325 278 265 266 255 247 254 267 283 303 313 314 308 293 284 288 303 303 293 314 337 346 333 301 266 259 302 351 352 238 236 251 242 258 310 336 342 340 337 334 333 332 331 332 335 336 337 336 334 333 332 331 330 329 328 327 326 327 326 323 319 315 311 308 304 299 293 289 285 281 277
339 335 329 310 293 318 325 294 296 347 29 82 89 261 289 314 322 192 277 303 266 234 267 286 287 298 315 315 309 298 288 296 326 340 290 314 331 295 253 274 279 296 319 315 235 233 264 258 246 270 312 331 336 334 333 333 332 330 330 331 333 335 335 335 333 331 330 331 330 329 328 326 326 327 327 326 323 319 315 314 312 307 300 295 289 284 278
331 324 320 307 288 305 322 288 284 300 243 220 167 172 225 303 322 253 293 311 299 286 299 302 289 280 295 305 301 288 283 8 338 261 302 319 294 217 232 291 318 314 296 272 253 266 271 252 269 308 326 333 333 331 331 331 331 330 329 329 331 332 333 332 331 329 329 329 329 328 327 326 327 326 326 326 325 322 319 318 316 313 307 301 294 288 281
323 312 314 315 290 293 307 281 316 348 159 197 222 237 267 300 312 306 300 300 296 292 299 303 291 272 279 297 298 285 302 329 281 199 162 276 259 252 322 329 306 283 262 253 256 255 247 284 331 335 333 331 329 329 329 329 329 329 329 328 328 330 330 330 329 328 327 327 327 326 326 326 326 326 325 324 324 323 322 321 319 317 311 303 298 294 288
315 306 315 319 283 288 278 194 318 334 321 293 299 304 301 300 304 305 303 300 296 292 294 297 294 280 276 281 281 286 325 11 229 212 199 243 270 310 8 338 259 234 224 248 267 271 295 326 332 331 328 327 326 326 327 328 328 328 328 327 327 328 329 329 328 327 327 327 326 325 325 326 325 325 325 324 323 323 323 322 320 317 312 306 302 298 291
306 296 300 294 270 283 77 350 326 325 321 317 321 322 316 310 309 311 310 306 299 294 292 296 299 294 289 292 297 310 6 20 265 232 179 261 295 315 340 285 267 253 228 243 271 305 326 326 325 324 323 324 324 324 325 326 327 327 327 327 327 328 328 327 326 326 326 326 325 324 325 325 324 324 324 323 322 323 324 322 319 317 314 311 307 302 294
295 274 269 284 302 320 333 329 325 324 330 338 340 335 330 326 323 321 320 315 305 297 290 287 289 293 304 333 337 292 212 212 232 80 78 263 263 263 271 277 279 274 228 218 276 314 321 321 321 320 320 321 322 322 323 325 325 326 326 326 327 327 327 326 326 326 326 326 325 324 324 324 323 323 323 323 322 323 323 322 319 319 318 315 311 306 299
291 268 263 277 305 326 333 335 330 322 334 343 342 336 333 332 331 330 328 320 309 301 293 288 289 300 337 338 330 307 193 173 145 140 263 249 216 195 254 261 257 285 321 323 320 319 319 318 317 317 317 319 320 321 322 323 324 325 326 327 327 327 327 326 326 326 327 327 326 325 325 324 324 323 322 321 321 322 323 323 323 322 321 317 313 309 304
296 277 274 292 300 305 317 326 320 306 319 330 332 330 328 326 326 328 327 319 308 303 288 253 214 90 76 295 299 292 178 156 154 216 259 252 191 179 237 247 271 313 321 320 318 317 316 316 315 315 316 317 319 321 322 323 325 326 327 328 328 327 327 327 327 327 327 328 327 327 326 325 324 324 324 323 323 323 323 325 327 327 323 319 315 311 308
289 285 306 316 314 311 313 313 302 299 308 315 319 321 321 319 321 326 325 310 282 262 243 214 174 105 2 305 332 47 176 189 232 276 272 222 182 193 233 284 309 317 318 317 315 315 314 314 314 314 315 318 320 322 323 325 326 327 327 327 327 326 326 326 327 327 327 327 327 327 326 325 326 326 325 325 324 323 323 325 328 329 325 320 317 315 312
Height
1559 1560 1559 1559 1559 1559 1559 1559 1559 1559 1558 1558 1558 1558 1558 1557 1557 1556 1556 1556 1556 1557 1560 1564 1566 1568 1572 1574 1574 1575 1576 1576 1577 1578 1578 1577 1577 1576 1577 1578 1578 1578 1579 1579 1579 1580 1578 1577 1577 1578 1579 1583 1587 1588 1589 1589 1589 1588 1584 1583 1587 1586 1580 1576 1564 1556 1563 1572 1572 1572 1574 1573 1572 1574 1576 1577 1579 1579 1579 1579 1579 1580 1575 1568 1573 1564 1531
1559 1559 1559 1559 1559 1559 1559 1559 1559 1559 1559 1559 1558 1558 1558 1558 1557 1557 1556 1556 1556 1556 1557 1562 1568 1572 1574 1574 1575 1576 1576 1577 1577 1577 1577 1577 1577 1576 1576 1579 1579 1579 1581 1580 1580 1581 1579 1577 1579 1580 1580 1584 1589 1589 1589 1590 1589 1588 1585 1585 1587 1583 1576 1574 1564 1555 1557 1562 1564 1567 1572 1571 1567 1569 1576 1577 1579 1584 1584 1583 1586 1584 1572 1567 1573 1559 1525
1559 1559 1559 1559 1559 1559 1559 1559 1559 1559 1559 1559 1559 1558 1558 1558 1557 1557 1556 1556 1556 1556 1556 1559 1565 1571 1573 1574 1575 1575 1576 1577 1577 1577 1577 1577 1577 1576 1577 1579 1579 1580 1582 1581 1581 1583 1580 1579 1581 1582 1582 1586 1589 1589 1589 1590 1589 1589 1588 1588 1589 1583 1576 1573 1568 1563 1560 1558 1557 1559 1562 1564 1562 1566 1577 1579 1580 1584 1581 1578 1581 1576 1563 1561 1562 1545 1518
1559 1559 1559 1559 1559 1559 1559 1559 1559 1559 1559 1559 1559 1558 1558 1558 1557 1557 1556 1556 1556 1557 1558 1558 1562 1567 1569 1571 1575 1574 1575 1577 1577 1577 1577 1577 1578 1577 1577 1579 1579 1580 1581 1580 1580 1581 1582 1582 1583 1583 1582 1585 1588 1589 1589 1590 1589 1589 1589 1589 1589 1585 1579 1574 1570 1569 1568 1564 1561 1560 1561 1562 1560 1562 1571 1577 1580 1581 1579 1577 1572 1563 1559 1556 1549 1538 1523
1558 1558 1558 1558 1559 1559 1559 1559 1559 1559 1559 1559 1559 1559 1558 1557 1557 1557 1557 1556 1556 1558 1559 1560 1561 1564 1565 1567 1572 1573 1573 1576 1578 1578 1578 1577 1578 1578 1578 1579 1578 1578 1579 1578 1577 1579 1582 1583 1583 1584 1583 1585 1588 1589 1588 1589 1589 1589 1589 1589 1589 1584 1576 1575 1575 1572 1570 1566 1563 1563 1563 1564 1561 1559 1563 1570 1577 1580 1580 1576 1563 1557 1561 1551 1534 1534 1532
1558 1558 1558 1558 1559 1559 1559 1559 1559 1559 1559 1559 1559 1559 1558 1557 1557 1558 1558 1557 1557 1558 1559 1561 1562 1563 1564 1567 1571 1572 1572 1574 1575 1576 1578 1578 1577 1577 1577 1577 1577 1576 1577 1576 1576 1577 1579 1580 1582 1584 1584 1585 1587 1587 1589 1589 1588 1589 1589 1589 1590 1584 1575 1577 1581 1575 1570 1568 1564 1562 1562 1561 1558 1558 1559 1562 1569 1575 1575 1570 1560 1559 1562 1547 1529 1533 1534
1557 1558 1558 1559 1559 1559 1559 1559 1559 1559 1559 1559 1559 1558 1558 1558 1557 1558 1559 1558 1559 1559 1560 1562 1563 1563 1565 1568 1570 1570 1570 1572 1573 1574 1576 1577 1577 1576 1575 1574 1574 1575 1577 1576 1575 1575 1576 1576 1579 1582 1583 1585 1585 1584 1585 1587 1587 1589 1588 1588 1591 1584 1575 1579 1584 1578 1569 1563 1559 1558 1560 1559 1557 1557 1557 1556 1559 1564 1565 1562 1559 1559 1555 1543 1535 1536 1531
1558 1558 1558 1559 1559 1559 1558 1558 1558 1558 1558 1558 1558 1558 1558 1557 1557 1558 1558 1559 1561 1561 1562 1562 1562 1563 1565 1566 1568 1569 1568 1569 1571 1572 1573 1573 1575 1576 1574 1572 1574 1576 1577 1577 1575 1575 1575 1575 1578 1580 1581 1582 1582 1580 1579 1581 1587 1588 1586 1589 1590 1584 1577 1580 1585 1577 1562 1553 1554 1557 1556 1556 1556 1555 1554 1554 1553 1555 1557 1557 1556 1556 1550 1542 1539 1537 1527
1558 1558 1558 1558 1558 1558 1558 1558 1558 1558 1558 1558 1558 1557 1557 1557 1557 1557 1557 1559 1562 1562 1563 1563 1562 1562 1563 1563 1565 1567 1566 1566 1569 1571 1572 1571 1572 1574 1573 1572 1574 1576 1577 1577 1576 1575 1576 1576 1577 1579 1579 1578 1579 1579 1577 1579 1584 1586 1586 1588 1588 1584 1580 1578 1581 1574 1556 1549 1555 1554 1552 1556 1560 1558 1553 1551 1550 1549 1550 1549 1548 1548 1545 1540 1539 1535 1522
1558 1558 1558 1558 1558 1557 1558 1558 1557 1557 1557 1557 1557 1557 1557 1557 1557 1557 1556 1559 1563 1563 1563 1563 1562 1560 1560 1561 1564 1566 1565 1566 1567 1568 1570 1572 1571 1572 1573 1572 1573 1575 1576 1577 1576 1576 1577 1577 1577 1578 1578 1578 1579 1579 1579 1579 1580 1582 1585 1587 1586 1586 1581 1576 1579 1572 1553 1548 1552 1551 1552 1551 1546 1543 1543 1541 1542 1542 1541 1540 1539 1539 1539 1537 1534 1525 1515
1557 1557 1557 1557 1557 1557 1557 1557 1557 1557 1557 1557 1557 1556 1556 1556 1556 1557 1557 1558 1562 1563 1562 1562 1561 1560 1561 1562 1564 1565 1565 1566 1567 1567 1568 1571 1571 1572 1573 1573 1573 1573 1574 1576 1576 1576 1577 1577 1577 1577 1578 1579 1579 1579 1579 1580 1580 1580 1582 1584 1587 1589 1584 1578 1580 1574 1557 1550 1551 1551 1549 1537 1525 1528 1534 1534 1535 1537 1535 1533 1532 1531 1531 1530 1524 1516 1512
1557 1557 1557 1557 1557 1557 1557 1557 1557 1557 1557 1557 1557 1556 1556 1556 1556 1557 1557 1556 1560 1563 1562 1561 1560 1561 1562 1563 1563 1565 1565 1566 1567 1567 1568 1570 1571 1572 1573 1574 1574 1573 1575 1576 1576 1577 1577 1577 1577 1578 1578 1578 1578 1579 1579 1579 1580 1580 1580 1582 1584 1587 1585 1580 1581 1578 1564 1554 1554 1549 1535 1524 1525 1533 1534 1533 1535 1536 1534 1530 1526 1526 1526 1522 1519 1516 1513
1558 1558 1557 1558 1557 1557 1557 1557 1557 1557 1556 1556 1556 1556 1556 1556 1556 1557 1557 1556 1558 1561 1561 1560 1561 1562 1562 1563 1564 1565 1566 1567 1567 1568 1569 1570 1571 1572 1573 1574 1574 1575 1576 1576 1577 1577 1577 1576 1577 1576 1578 1579 1578 1579 1579 1578 1579 1580 1580 1581 1581 1583 1583 1579 1578 1576 1564 1555 1555 1548 1529 1520 1529 1536 1534 1535 1538 1537 1536 1529 1518 1518 1520 1517 1515 1514 1512
1558 1558 1558 1557 1557 1557 1557 1557 1556 1556 1556 1556 1556 1556 1556 1556 1556 1557 1557 1556 1557 1559 1560 1559 1560 1562 1562 1563 1565 1565 1567 1568 1568 1569 1570 1570 1571 1572 1573 1574 1574 1575 1576 1576 1578 1578 1575 1573 1572 1570 1572 1575 1573 1573 1575 1577 1578 1579 1579 1580 1580 1580 1580 1579 1575 1570 1565 1560 1554 1545 1529 1520 1525 1531 1531 1533 1534 1533 1536 1530 1514 1509 1513 1513 1512 1512 1511
1558 1558 1557 1557 1557 1557 1556 1556 1556 1556 1556 1556 1556 1555 1556 1556 1556 1556 1556 1556 1557 1558 1559 1558 1558 1560 1562 1563 1564 1565 1567 1568 1568 1569 1570 1571 1571 1572 1573 1574 1575 1575 1576 1576 1577 1576 1574 1572 1568 1563 1562 1563 1563 1564 1569 1573 1576 1579 1579 1579 1581 1581 1580 1579 1575 1568 1568 1566 1556 1546 1535 1520 1517 1523 1527 1529 1531 1530 1537 1536 1518 1504 1506 1509 1510 1510 1509
1558 1557 1557 1557 1556 1556 1556 1556 1556 1555 1555 1555 1555 1555 1555 1555 1556 1556 1556 1556 1556 1555 1556 1557 1558 1559 1561 1563 1564 1564 1565 1566 1567 1568 1569 1571 1572 1572 1573 1574 1575 1575 1576 1577 1576 1575 1574 1572 1568 1563 1559 1559 1561 1562 1563 1564 1568 1577 1582 1580 1580 1582 1581 1582 1581 1573 1568 1567 1559 1551 1540 1521 1514 1521 1528 1530 1531 1532 1537 1533 1513 1501 1504 1507 1507 1507 1506
1558 1557 1557 1556 1556 1556 1555 1555 1555 1555 1555 1554 1554 1554 1554 1555 1555 1555 1555 1555 1555 1554 1555 1556 1557 1558 1560 1562 1563 1564 1564 1565 1566 1565 1565 1568 1571 1572 1573 1574 1575 1575 1576 1576 1575 1574 1572 1570 1569 1564 1559 1561 1565 1563 1560 1558 1558 1566 1577 1579 1580 1582 1580 1580 1579 1571 1565 1565 1559 1548 1533 1518 1515 1523 1528 1529 1531 1535 1534 1517 1497 1497 1506 1505 1503 1505 1503
1558 1558 1557 1556 1556 1555 1555 1554 1554 1554 1554 1553 1553 1553 1553 1554 1554 1554 1554 1554 1554 1554 1555 1555 1556 1557 1558 1559 1560 1561 1562 1563 1564 1564 1565 1568 1570 1570 1571 1573 1574 1576 1576 1576 1574 1572 1569 1567 1567 1562 1558 1564 1568 1563 1558 1558 1555 1555 1562 1567 1572 1578 1578 1574 1572 1566 1560 1562 1559 1546 1528 1516 1517 1524 1526 1528 1532 1532 1522 1502 1492 1499 1503 1500 1500 1502 1499
1559 1558 1557 1557 1556 1555 1555 1554 1554 1553 1553 1553 1553 1552 1552 1552 1552 1552 1553 1553 1553 1553 1554 1555 1556 1556 1557 1558 1559 1560 1561 1562 1562 1563 1564 1565 1567 1569 1570 1572 1573 1574 1576 1576 1573 1569 1566 1564 1565 1565 1561 1562 1566 1564 1558 1556 1554 1552 1555 1556 1558 1565 1570 1569 1569 1564 1556 1554 1556 1546 1527 1515 1518 1523 1526 1529 1529 1518 1504 1495 1496 1499 1499 1498 1499 1498 1496
1559 1558 1558 1557 1556 1556 1555 1554 1554 1553 1552 1552 1552 1551 1551 1551 1551 1551 1552 1552 1551 1552 1553 1554 1555 1556 1557 1558 1558 1559 1560 1561 1561 1561 1561 1562 1566 1568 1568 1568 1569 1572 1574 1574 1570 1568 1565 1561 1564 1568 1562 1558 1561 1563 1559 1555 1550 1549 1554 1554 1552 1555 1556 1552 1552 1552 1548 1550 1555 1543 1520 1510 1515 1521 1524 1526 1519 1504 1495 1496 1497 1497 1496 1497 1496 1494 1495
1559 1559 1558 1557 1556 1556 1555 1554 1554 1553 1552 1552 1551 1551 1550 1550 1550 1550 1551 1551 1551 1551 1552 1554 1555 1556 1557 1558 1558 1559 1560 1560 1561 1561 1561 1562 1564 1565 1563 1562 1565 1567 1569 1568 1566 1566 1565 1562 1564 1567 1563 1560 1561 1561 1558 1554 1549 1549 1555 1556 1552 1552 1547 1538 1536 1539 1541 1542 1538 1523 1506 1505 1511 1511 1510 1510 1504 1496 1495 1497 1495 1494 1494 1494 1493 1492 1492
1560 1559 1558 1557 1557 1556 1555 1554 1554 1553 1552 1551 1551 1550 1550 1549 1549 1550 1550 1550 1550 1550 1552 1554 1555 1556 1557 1557 1558 1559 1559 1560 1560 1561 1562 1562 1563 1564 1562 1563 1565 1565 1565 1565 1564 1563 1564 1564 1565 1564 1560 1559 1560 1558 1557 1554 1548 1548 1554 1553 1546 1543 1541 1538 1536 1537 1534 1527 1516 1506 1502 1505 1507 1502 1499 1498 1497 1495 1496 1495 1493 1493 1492 1491 1490 1490 1489
1560 1560 1559 1558 1557 1556 1555 1554 1554 1553 1552 1551 1551 1550 1549 1549 1549 1549 1550 1550 1550 1551 1553 1555 1555 1557 1557 1558 1559 1559 1559 1560 1560 1560 1561 1562 1562 1563 1563 1563 1564 1564 1564 1564 1563 1561 1562 1562 1562 1561 1557 1556 1555 1555 1556 1554 1548 1545 1548 1546 1539 1537 1540 1541 1538 1535 1530 1519 1507 1503 1502 1501 1500 1498 1495 1494 1494 1493 1493 1492 1491 1490 1489 1488 1487 1487 1486
1561 1560 1559 1558 1557 1556 1556 1555 1554 1553 1553 1552 1551 1551 1550 1550 1550 1550 1550 1550 1550 1551 1555 1557 1557 1557 1558 1558 1559 1559 1559 1560 1560 1560 1561 1561 1561 1562 1562 1563 1563 1563 1563 1563 1562 1563 1563 1562 1563 1563 1559 1556 1554 1552 1550 1548 1545 1543 1543 1540 1536 1536 1539 1539 1536 1534 1530 1514 1499 1498 1500 1496 1495 1495 1492 1491 1491 1490 1489 1489 1487 1486 1486 1485 1484 1483 1483
1561 1560 1560 1559 1558 1557 1556 1556 1555 1555 1554 1553 1552 1552 1552 1551 1551 1551 1550 1550 1550 1551 1554 1557 1558 1558 1558 1559 1559 1559 1559 1560 1560 1560 1560 1560 1561 1561 1561 1561 1562 1562 1562 1562 1562 1563 1563 1561 1563 1563 1558 1555 1554 1550 1546 1544 1542 1542 1541 1536 1531 1533 1538 1536 1531 1529 1524 1509 1497 1496 1497 1492 1491 1492 1489 1487 1487 1486 1485 1485 1484 1483 1483 1481 1480 1480 1480
1562 1561 1560 1559 1559 1558 1557 1557 1556 1555 1555 1554 1553 1553 1553 1552 1552 1551 1551 1551 1551 1551 1553 1557 1558 1558 1558 1559 1559 1559 1560 1560 1560 1560 1560 1560 1560 1560 1560 1560 1560 1560 1561 1561 1561 1562 1562 1561 1561 1560 1557 1555 1554 1550 1547 1545 1543 1543 1540 1532 1529 1534 1535 1529 1525 1522 1517 1506 1498 1495 1492 1487 1486 1486 1485 1484 1484 1483 1482 1482 1481 1480 1479 1478 1477 1477 1476
1562 1562 1561 1560 1559 1558 1558 1557 1557 1556 1556 1555 1554 1554 1554 1553 1553 1552 1552 1552 1552 1551 1553 1556 1558 1558 1559 1559 1559 1559 1560 1560 1559 1559 1559 1559 1559 1559 1559 1559 1559 1559 1560 1560 1560 1560 1561 1560 1559 1557 1555 1554 1553 1551 1549 1547 1546 1544 1537 1528 1528 1531 1527 1522 1523 1522 1511 1499 1494 1493 1490 1485 1481 1482 1483 1482 1482 1481 1480 1478 1477 1476 1475 1475 1474 1473 1472
1563 1562 1561 1560 1560 1559 1559 1558 1557 1557 1557 1556 1555 1555 1555 1554 1554 1553 1553 1553 1552 1551 1552 1555 1557 1559 1559 1560 1560 1559 1560 1559 1559 1559 1559 1559 1559 1559 1558 1558 1559 1559 1559 1559 1559 1559 1559 1558 1556 1554 1553 1553 1552 1550 1548 1548 1548 1542 1529 1519 1519 1519 1515 1513 1516 1511 1499 1491 1489 1491 1490 1485 1481 1481 1482 1480 1479 1479 1477 1475 1474 1473 1472 1471 1471 1470 1468
1564 1563 1562 1561 1560 1560 1559 1558 1558 1557 1557 1557 1556 1556 1556 1555 1555 1554 1553 1553 1552 1551 1552 1554 1557 1559 1559 1559 1560 1560 1559 1559 1559 1559 1559 1559 1558 1558 1558 1558 1558 1558 1558 1559 1558 1557 1556 1555 1553 1552 1553 1553 1551 1548 1545 1545 1541 1527 1512 1507 1509 1508 1505 1505 1505 1501 1494 1489 1489 1490 1488 1485 1482 1480 1479 1477 1476 1475 1474 1472 1471 1470 1468 1468 1467 1466 1465
1564 1563 1563 1562 1561 1561 1560 1559 1558 1558 1557 1557 1557 1557 1556 1556 1555 1555 1554 1553 1553 1552 1552 1554 1557 1559 1559 1559 1559 1559 1559 1559 1559 1558 1558 1558 1558 1557 1557 1557 1557 1557 1558 1558 1557 1556 1555 1554 1552 1552 1551 1551 1552 1549 1543 1542 1535 1516 1501 1500 1503 1501 1500 1500 1499 1497 1493 1488 1488 1488 1486 1482 1480 1478 1475 1474 1473 1471 1470 1468 1467 1466 1465 1464 1462 1462 1461
1564 1564 1563 1563 1562 1561 1561 1560 1559 1558 1558 1558 1557 1557 1557 1556 1556 1556 1555 1554 1554 1553 1553 1554 1557 1559 1560 1559 1559 1559 1559 1559 1558 1558 1558 1557 1557 1557 1556 1556 1556 1557 1557 1557 1557 1556 1554 1552 1551 1551 1550 1550 1552 1548 1542 1542 1536 1515 1497 1495 1498 1498 1497 1497 1495 1494 1491 1487 1487 1487 1483 1479 1477 1474 1471 1469 1468 1467 1465 1464 1463 1462 1461 1459 1458 1457 1456
1565 1565 1564 1564 1563 1562 1562 1561 1560 1559 1559 1558 1558 1557 1557 1557 1557 1556 1555 1555 1554 1554 1553 1554 1557 1559 1560 1559 1559 1558 1558 1558 1557 1557 1557 1556 1556 1556 1555 1555 1555 1555 1555 1556 1555 1553 1552 1551 1550 1550 1550 1550 1551 1548 1543 1542 1533 1511 1494 1493 1496 1496 1495 1494 1492 1491 1488 1485 1485 1484 1479 1474 1472 1471 1467 1466 1464 1463 1461 1460 1459 1458 1456 1454 1453 1451 1450
1566 1566 1565 1564 1564 1563 1562 1561 1560 1560 1560 1560 1559 1559 1558 1558 1557 1557 1556 1555 1555 1554 1554 1554 1556 1558 1559 1559 1558 1558 1558 1558 1557 1557 1556 1555 1555 1554 1554 1554 1554 1554 1553 1554 1553 1551 1550 1550 1549 1549 1550 1549 1549 1549 1544 1533 1517 1502 1495 1495 1495 1493 1493 1492 1490 1487 1484 1482 1482 1481 1474 1469 1468 1467 1464 1462 1460 1458 1456 1456 1454 1452 1450 1449 1447 1445 1445
1567 1566 1566 1565 1564 1563 1563 1562 1561 1561 1561 1561 1560 1559 1559 1558 1558 1557 1556 1556 1555 1555 1554 1554 1556 1558 1558 1558 1558 1558 1558 1558 1557 1557 1556 1554 1554 1554 1554 1553 1553 1553 1552 1551 1551 1551 1550 1549 1550 1550 1549 1548 1550 1549 1537 1518 1503 1498 1498 1496 1493 1492 1491 1489 1486 1483 1481 1479 1478 1475 1470 1466 1465 1463 1460 1457 1455 1453 1452 1450 1448 1446 1444 1442 1440 1439 1439
1567 1567 1566 1565 1565 1564 1563 1563 1562 1562 1562 1561 1561 1560 1560 1559 1558 1558 1557 1556 1555 1555 1555 1555 1556 1557 1557 1557 1557 1558 1558 1557 1557 1556 1555 1554 1553 1553 1553 1553 1553 1552 1551 1550 1550 1550 1549 1550 1549 1547 1546 1548 1548 1542 1525 1507 1499 1499 1498 1495 1492 1491 1489 1486 1482 1480 1478 1476 1473 1470 1466 1464 1461 1457 1454 1452 1450 1448 1446 1444 1442 1440 1438 1436 1434 1434 1435
1568 1567 1567 1566 1565 1564 1564 1563 1563 1562 1562 1562 1561 1561 1560 1559 1559 1558 1558 1557 1556 1556 1556 1557 1557 1559 1559 1557 1557 1557 1558 1557 1555 1555 1554 1553 1552 1552 1553 1552 1552 1550 1550 1550 1550 1549 1548 1549 1547 1546 1547 1545 1535 1521 1510 1503 1500 1499 1496 1494 1492 1491 1488 1484 1481 1477 1475 1472 1469 1465 1463 1460 1456 1452 1449 1447 1445 1443 1441 1438 1436 1434 1432 1430 1429 1429 1429
1569 1568 1567 1566 1566 1565 1564 1564 1563 1563 1562 1562 1561 1561 1560 1559 1559 1559 1558 1558 1557 1557 1557 1557 1558 1560 1560 1559 1558 1558 1557 1555 1555 1554 1553 1552 1552 1552 1552 1552 1551 1549 1548 1548 1547 1547 1547 1547 1546 1544 1540 1530 1516 1505 1502 1503 1502 1499 1497 1494 1492 1490 1487 1484 1480 1476 1472 1468 1464 1461 1459 1455 1451 1448 1445 1442 1440 1438 1435 1432 1430 1428 1426 1425 1425 1425 1424
1569 1568 1568 1567 1566 1565 1565 1564 1563 1563 1562 1562 1561 1560 1560 1559 1559 1558 1558 1558 1557 1557 1557 1557 1558 1559 1560 1559 1558 1558 1557 1556 1555 1554 1553 1552 1552 1551 1551 1551 1550 1549 1547 1544 1544 1546 1546 1544 1545 1542 1530 1514 1505 1502 1502 1501 1500 1500 1498 1495 1492 1489 1486 1483 1479 1476 1471 1465 1461 1458 1455 1451 1447 1443 1440 1438 1435 1432 1429 1426 1425 1424 1422 1421 1420 1420 1420
1569 1569 1568 1567 1566 1566 1565 1564 1564 1563 1562 1562 1561 1560 1560 1559 1558 1558 1558 1558 1557 1557 1557 1557 1558 1559 1559 1558 1558 1557 1556 1556 1555 1553 1553 1553 1552 1551 1551 1551 1550 1550 1547 1542 1541 1545 1542 1538 1541 1541 1526 1509 1502 1501 1499 1499 1500 1499 1497 1494 1491 1488 1484 1480 1477 1475 1471 1466 1461 1457 1455 1452 1447 1442 1438 1435 1431 1427 1424 1422 1420 1419 1417 1416 1416 1416 1414
1569 1569 1568 1567 1566 1566 1565 1564 1564 1563 1562 1562 1561 1560 1560 1559 1558 1559 1559 1558 1557 1557 1558 1558 1558 1558 1558 1558 1557 1557 1556 1556 1555 1554 1554 1553 1552 1552 1552 1551 1551 1551 1546 1539 1540 1544 1541 1536 1538 1536 1519 1502 1497 1499 1499 1498 1499 1496 1493 1491 1488 1484 1481 1478 1474 1471 1467 1463 1458 1455 1452 1449 1445 1440 1436 1433 1429 1425 1421 1418 1416 1414 1413 1412 1411 1410 1408
1570 1569 1568 1567 1566 1566 1565 1564 1564 1562 1562 1562 1561 1560 1560 1560 1560 1561 1560 1558 1556 1557 1558 1558 1557 1557 1557 1557 1557 1557 1556 1555 1555 1555 1555 1554 1554 1553 1552 1552 1552 1550 1544 1539 1541 1544 1542 1538 1536 1527 1509 1497 1497 1500 1499 1497 1495 1492 1489 1487 1484 1480 1477 1473 1469 1467 1463 1458 1453 1450 1447 1443 1440 1436 1433 1429 1426 1421 1417 1415 1413 1411 1409 1407 1405 1404 1403
1570 1569 1568 1567 1566 1565 1565 1564 1563 1562 1562 1561 1560 1562 1563 1562 1561 1561 1560 1558 1557 1558 1558 1557 1557 1557 1557 1557 1557 1556 1556 1556 1556 1556 1556 1555 1555 1554 1553 1554 1554 1548 1541 1540 1544 1545 1542 1538 1530 1515 1502 1498 1500 1500 1496 1494 1491 1489 1486 1483 1480 1477 1474 1469 1465 1461 1459 1454 1450 1445 1441 1438 1435 1432 1429 1425 1421 1417 1413 1410 1409 1407 1404 1402 1400 1399 1398
1570 1569 1568 1567 1566 1565 1564 1564 1563 1563 1563 1563 1562 1562 1562 1562 1562 1562 1561 1559 1558 1559 1558 1558 1558 1558 1557 1557 1557 1557 1557 1556 1556 1557 1557 1556 1556 1556 1555 1555 1552 1547 1544 1545 1546 1543 1539 1532 1519 1505 1499 1500 1500 1497 1494 1492 1489 1486 1483 1480 1477 1473 1470 1466 1462 1457 1454 1451 1447 1442 1437 1433 1429 1426 1424 1421 1416 1411 1407 1405 1404 1402 1399 1397 1395 1394 1393
1570 1569 1567 1566 1566 1565 1564 1563 1563 1563 1563 1564 1563 1563 1561 1561 1562 1563 1562 1559 1558 1559 1559 1559 1559 1558 1558 1558 1557 1556 1556 1556 1557 1557 1557 1557 1557 1556 1553 1549 1547 1546 1545 1544 1543 1540 1535 1525 1512 1503 1501 1501 1499 1496 1493 1490 1486 1482 1479 1475 1473 1470 1466 1462 1458 1453 1449 1446 1442 1438 1434 1429 1424 1421 1418 1415 1412 1407 1402 1398 1397 1395 1393 1390 1388 1386 1386
1569 1568 1567 1566 1565 1565 1563 1563 1564 1563 1562 1562 1564 1564 1562 1561 1561 1561 1560 1560 1560 1560 1559 1559 1559 1558 1558 1558 1557 1556 1557 1557 1557 1557 1557 1557 1556 1553 1550 1548 1547 1547 1546 1543 1540 1534 1526 1516 1508 1504 1502 1500 1497 1495 1492 1488 1484 1481 1476 1471 1468 1466 1463 1459 1455 1450 1446 1442 1438 1434 1430 1425 1421 1416 1412 1409 1406 1403 1398 1394 1392 1390 1387 1384 1381 1379 1379
1569 1568 1567 1566 1565 1564 1564 1564 1564 1563 1562 1563 1564 1563 1563 1562 1561 1561 1561 1561 1560 1559 1558 1558 1558 1558 1558 1557 1557 1556 1557 1557 1557 1557 1558 1557 1553 1549 1549 1548 1547 1545 1542 1539 1533 1524 1514 1508 1505 1504 1502 1499 1496 1493 1490 1486 1482 1479 1474 1469 1465 1462 1459 1456 1452 1448 1443 1439 1435 1431 1426 1422 1418 1413 1408 1404 1401 1399 1395 1391 1388 1385 1382 1378 1374 1373 1372
1569 1568 1568 1566 1565 1565 1564 1565 1565 1564 1564 1564 1564 1563 1563 1562 1561 1561 1561 1560 1559 1558 1558 1557 1557 1557 1557 1557 1557 1557 1557 1558 1557 1557 1557 1556 1553 1551 1551 1550 1546 1541 1536 1530 1522 1515 1510 1507 1505 1503 1501 1498 1494 1491 1487 1484 1480 1477 1473 1469 1464 1460 1456 1452 1448 1444 1440 1436 1431 1427 1423 1419 1414 1410 1405 1400 1396 1393 1390 1387 1383 1380 1377 1372 1369 1367 1366
1569 1568 1568 1566 1565 1565 1565 1565 1565 1565 1564 1564 1563 1563 1562 1562 1561 1560 1560 1559 1559 1558 1558 1557 1557 1557 1557 1557 1557 1557 1558 1558 1556 1556 1557 1557 1553 1549 1547 1545 1540 1537 1533 1526 1518 1513 1510 1508 1505 1502 1500 1497 1493 1488 1485 1481 1478 1474 1471 1467 1462 1457 1453 1448 1444 1440 1437 1432 1428 1423 1419 1415 1410 1406 1402 1396 1391 1388 1385 1382 1378 1375 1371 1367 1364 1362 1360
1568 1568 1567 1566 1566 1566 1566 1565 1565 1564 1563 1563 1563 1562 1561 1561 1560 1560 1559 1559 1558 1558 1558 1558 1558 1557 1557 1557 1558 1558 1558 1557 1556 1556 1558 1556 1551 1547 1545 1540 1533 1527 1525 1522 1518 1514 1511 1508 1505 1502 1498 1494 1491 1487 1483 1480 1477 1473 1469 1464 1459 1455 1450 1445 1441 1436 1433 1429 1425 1420 1415 1411 1407 1402 1397 1392 1387 1382 1379 1376 1373 1370 1366 1363 1360 1357 1354
1567 1567 1567 1566 1566 1565 1565 1565 1565 1564 1563 1563 1563 1562 1561 1560 1560 1559 1559 1558 1558 1557 1558 1558 1557 1557 1558 1559 1557 1556 1556 1556 1557 1556 1554 1551 1549 1548 1545 1538 1529 1523 1521 1519 1517 1514 1511 1508 1503 1498 1494 1491 1489 1485 1481 1478 1474 1470 1466 1461 1456 1452 1448 1443 1439 1433 1429 1425 1421 1416 1412 1407 1403 1398 1394 1389 1384 1378 1374 1371 1369 1365 1362 1358 1355 1353 1350
1567 1567 1567 1567 1566 1566 1566 1566 1565 1565 1564 1563 1562 1561 1560 1560 1559 1559 1558 1558 1557 1557 1557 1557 1557 1558 1558 1556 1553 1552 1553 1555 1557 1555 1550 1547 1548 1548 1542 1532 1526 1523 1521 1519 1517 1514 1510 1505 1501 1496 1491 1488 1485 1482 1479 1475 1471 1467 1463 1459 1454 1449 1444 1440 1435 1431 1426 1421 1417 1413 1409 1404 1400 1396 1391 1386 1381 1375 1369 1365 1363 1361 1357 1353 1350 1348 1345
1567 1566 1566 1567 1566 1566 1566 1566 1566 1565 1564 1563 1562 1561 1560 1559 1559 1558 1558 1557 1557 1557 1557 1557 1557 1557 1556 1553 1553 1553 1553 1553 1553 1550 1545 1542 1543 1542 1536 1530 1526 1524 1521 1517 1514 1511 1507 1503 1499 1495 1491 1487 1483 1479 1475 1471 1466 1463 1459 1456 1451 1446 1442 1437 1432 1428 1423 1418 1414 1410 1405 1401 1397 1392 1387 1382 1377 1372 1366 1361 1358 1356 1352 1348 1345 1343 1341